Weather in Yevdokimovskaya

Russia / Arkhangel'skaya Oblast'     62°24′23″N   43°53′15″E
temp.,
°C
wind,
m/s
gust,
m/s
humid.,
%
clouds,
%
prec.,
mm/h
press.,
hPa
HPBL,
m
26 june, sun
sun2600:00+10nne22660 0.0 102018
03:00+9n22725 0.0 102120
06:00+14n125457 0.0 1022293
09:00+19wnw23405 0.0 1021975
12:00+23wnw243395 0.0 10191681
15:00+24wnw243299 0.0 10171711
18:00+23ssw234395 0.0 1015253
21:00+18ssw11705 0.1 101311
27 june, mon
mon2700:00+15nnw289820 0.8 1013221
03:00+11n51195100 0.8 1016647
06:00+10nne587695 0.0 1020832
09:00+12nne57525 0.0 10221033
12:00+17n46355 0.0 10211610
15:00+18n57330 0.0 10211985
18:00+16n57405 0.0 10221772
21:00+10ne49603 0.0 1024840
28 june, tue
tue2800:00+5n26745 0.0 1026141
03:00+4n388341 0.0 1027354
06:00+7n46635 0.0 1028729
09:00+12n46405 0.0 10271186
12:00+17n46305 0.0 10261590
15:00+19n46270 0.0 10261865
18:00+18n46312 0.0 10251822
21:00+13n25550 0.0 102688
29 june, wed
wed2900:00+9nne25640 0.0 102687
03:00+7nne23635 0.0 102746
06:00+11nnw244711 0.0 1027244
09:00+16nnw353411 0.0 10261008
12:00+20nw3528100 0.0 10231501
15:00+21nw462999 0.0 10211548
18:00+21nw483484 0.0 10201677
21:00+17n3746100 0.0 1019439
30 june, thu
thu3000:00+12wnw3881100 0.3 1019245
03:00+11nw2783100 0.3 1018222
06:00+13nne367251 0.0 1019547
09:00+18nne46366 0.0 10191232
12:00+20nne462668 0.0 10191663
15:00+22nne462411 0.0 10191907
18:00+21nne35285 0.0 10191849
21:00+14nne22519 0.0 102036